Location: Bad Salzschlirf
(50.3750°N, 9.3000°E)
Time: 03:41:58
(UTC+02:00)

ISS - Pass Details

Date: 07 July 2025
Orbit: 413 x 417 km, 51.6° (Epoch: 12 July)

Event Time Altitude Azimuth Distance (km) Brightness Sun altitude
Rises 03:37:47 0° 285° (WNW) 2,359 -0.1 -11.6°
Reaches altitude 10° 03:39:53 10° 284° (WNW) 1,495 -1.1 -11.4°
Maximum altitude 03:43:14 80° 199° (SSW) 428 -3.9 -11.1°
Drops below altitude 10° 03:46:35 10° 111° (ESE) 1,492 -0.8 -10.9°
Sets 03:48:41 0° 110° (ESE) 2,354 0.2 -10.7°
